< < Back
Terminal Aerodrome Forecast


Current Version              Previous Versions:   1  2  3  4  5  6  7  8  9  

Terminal Aerodrome Forecast

694
FTUS42 KJAX 241136
TAFSSI
TAF
KSSI 241136Z 2412/2512 06008KT P6SM SCT025 BKN250
     FM241500 06012G22KT P6SM SCT030 SCT250
     FM250000 07010KT P6SM FEW250=

Latest METAR

889
SAUS70 KWBC 250900 RRC
MTRSSI
METAR KSSI 250853Z AUTO 04008KT 10SM CLR 26/18 A3009 RMK AO2 SLP191
T02610183 56009


USA.gov is the U.S. government's official web portal to all federal, state and local government web resources and services.